DAMPE

Last updated on Thu Jul 03 2025 00:03:32 GMT+0000 (Coordinated Universal Time)

1 41173U 15078A 25183.56989145 .00001023 00000+0 38409-4 0 9996 2 41173 97.4479 182.7717 0010925 231.2051 128.8214 15.29495028531080
UTC large
Height (km)
Speed (km/s)
/
Latitude / Longitude
Inclination (degrees)
Orbital Period (minutes)
Azimuth
Elevation
Range (km)
Doppler Factor

Next 0 passes for location: London (51.5072 / 0.1276)

Sorry there are no passes over London.